This is the latest recevied weather packets stored in our database for station/object DK7LH-6. If no packets are shown the sender has not sent any weather packets the latest 10 day(s).
| Time | Temp. | Humidity | Pressure | Rain* | Wind** | Luminosity | Snow |
|---|---|---|---|---|---|---|---|
| 1778204747 | 4.44° C | 96% | 1018.3 hPa | 0 mm | - | 0 W/m² | - |
| 1778203817 | 5° C | 96% | 1018.2 hPa | 0 mm | - | 0 W/m² | - |
| 1778202949 | 5° C | 96% | 1018.1 hPa | 0 mm | - | 0 W/m² | - |
| 1778202019 | 5° C | 96% | 1018.1 hPa | 0 mm | - | 0 W/m² | - |
| 1778201151 | 5.56° C | 96% | 1018.1 hPa | 0 mm | - | 0 W/m² | - |
| 1778200221 | 5.56° C | 95% | 1018.1 hPa | 0 mm | - | 0 W/m² | - |
| 1778199353 | 5.56° C | 95% | 1018.1 hPa | 0 mm | - | 0 W/m² | - |
| 1778198423 | 6.11° C | 94% | 1018.1 hPa | 0 mm | - | 0 W/m² | - |
| 1778197556 | 6.11° C | 94% | 1018.1 hPa | 0 mm | - | 0 W/m² | - |
| 1778196626 | 6.67° C | 94% | 1018 hPa | 0 mm | - | 0 W/m² | - |
| 1778195757 | 7.22° C | 93% | 1018 hPa | 0 mm | - | 0 W/m² | - |
| 1778194827 | 7.22° C | 93% | 1017.9 hPa | 0 mm | - | 0 W/m² | - |
| 1778193959 | 7.78° C | 92% | 1017.9 hPa | 0 mm | - | 0 W/m² | - |
| 1778193029 | 8.33° C | 91% | 1017.9 hPa | 0 mm | - | 0 W/m² | - |
| 1778192161 | 8.33° C | 91% | 1017.8 hPa | 0 mm | - | 0 W/m² | - |
| 1778191231 | 8.89° C | 90% | 1017.8 hPa | 0 mm | - | 0 W/m² | - |
| 1778190363 | 8.89° C | 89% | 1017.6 hPa | 0 mm | - | 0 W/m² | - |
| 1778189433 | 9.44° C | 88% | 1017.7 hPa | 0 mm | - | 0 W/m² | - |
| 1778188566 | 10° C | 87% | 1017.6 hPa | 0 mm | - | 0 W/m² | - |
| 1778187636 | 10° C | 85% | 1017.6 hPa | 0 mm | - | 0 W/m² | - |
| 1778186738 | 10.56° C | 84% | 1017.4 hPa | 0 mm | - | 0 W/m² | - |
| 1778185868 | 11.11° C | 82% | 1017.4 hPa | 0 mm | - | 0 W/m² | - |
| 1778184938 | 11.11° C | 82% | 1017.2 hPa | 0 mm | - | 0 W/m² | - |
| 1778184070 | 11.67° C | 84% | 1017.1 hPa | 0 mm | - | 0 W/m² | - |
| 1778183140 | 11.67° C | 83% | 1017.1 hPa | 0 mm | - | 0 W/m² | - |
* Rain latest hour (hover to see other rain measurements)
** Current wind speed in m/s (hover to see current wind gust speed)